Year,Month,Day,Hour,Minute,Value (Times are PST for temperature in C)
2011,11,20,00,00,-2.40
2011,11,20,00,01,-2.40
2011,11,20,00,02,-2.40
2011,11,20,00,03,-2.40
2011,11,20,00,04,-2.40
2011,11,20,00,05,-2.50
2011,11,20,00,06,-2.50
2011,11,20,00,07,-2.50
2011,11,20,00,08,-2.50
2011,11,20,00,09,-2.50
2011,11,20,00,10,-2.50
2011,11,20,00,11,-2.50
2011,11,20,00,12,-2.50
2011,11,20,00,13,-2.50
2011,11,20,00,14,-2.50
2011,11,20,00,15,-2.60
2011,11,20,00,16,-2.60
2011,11,20,00,17,-2.60
2011,11,20,00,18,-2.60
2011,11,20,00,19,-2.60
2011,11,20,00,20,-2.60
2011,11,20,00,21,-2.70
2011,11,20,00,22,-2.70
2011,11,20,00,23,-2.70
2011,11,20,00,24,-2.70
2011,11,20,00,25,-2.70
2011,11,20,00,26,-2.70
2011,11,20,00,27,-2.70
2011,11,20,00,28,-2.70
2011,11,20,00,29,-2.70
2011,11,20,00,30,-2.70
2011,11,20,00,31,-2.70
2011,11,20,00,32,-2.70
2011,11,20,00,33,-2.70
2011,11,20,00,34,-2.70
2011,11,20,00,35,-2.70
2011,11,20,00,36,-2.70
2011,11,20,00,37,-2.70
2011,11,20,00,38,-2.70
2011,11,20,00,39,-2.70
2011,11,20,00,40,-2.70
2011,11,20,00,41,-2.70
2011,11,20,00,42,-2.70
2011,11,20,00,43,-2.70
2011,11,20,00,44,-2.70
2011,11,20,00,45,-2.70
2011,11,20,00,46,-2.70
2011,11,20,00,47,-2.70
2011,11,20,00,48,-2.70
2011,11,20,00,49,-2.70
2011,11,20,00,50,-2.70
2011,11,20,00,51,-2.70
2011,11,20,00,52,-2.70
2011,11,20,00,53,-2.70
2011,11,20,00,54,-2.70
2011,11,20,00,55,-2.70
2011,11,20,00,56,-2.70
2011,11,20,00,57,-2.70
2011,11,20,00,58,-2.70
2011,11,20,00,59,-2.70
2011,11,20,01,00,-2.70
2011,11,20,01,01,-2.70
2011,11,20,01,02,-2.70
2011,11,20,01,03,-2.70
2011,11,20,01,04,-2.70
2011,11,20,01,05,-2.70
2011,11,20,01,06,-2.70
2011,11,20,01,07,-2.70
2011,11,20,01,08,-2.80
2011,11,20,01,09,-2.80
2011,11,20,01,10,-2.80
2011,11,20,01,11,-2.80
2011,11,20,01,12,-2.80
2011,11,20,01,13,-2.80
2011,11,20,01,14,-2.80
2011,11,20,01,15,-2.80
2011,11,20,01,16,-2.80
2011,11,20,01,17,-2.80
2011,11,20,01,18,-2.80
2011,11,20,01,19,-2.80
2011,11,20,01,20,-2.80
2011,11,20,01,21,-2.80
2011,11,20,01,22,-2.80
2011,11,20,01,23,-2.80
2011,11,20,01,24,-2.80
2011,11,20,01,25,-2.80
2011,11,20,01,26,-2.80
2011,11,20,01,27,-2.80
2011,11,20,01,28,-2.70
2011,11,20,01,29,-2.70
2011,11,20,01,30,-2.70
2011,11,20,01,31,-2.70
2011,11,20,01,32,-2.70
2011,11,20,01,33,-2.70
2011,11,20,01,34,-2.70
2011,11,20,01,35,-2.60
2011,11,20,01,36,-2.60
2011,11,20,01,37,-2.60
2011,11,20,01,38,-2.60
2011,11,20,01,39,-2.60
2011,11,20,01,40,-2.70
2011,11,20,01,41,-2.70
2011,11,20,01,42,-2.70
2011,11,20,01,43,-2.70
2011,11,20,01,44,-2.70
2011,11,20,01,45,-2.70
2011,11,20,01,46,-2.70
2011,11,20,01,47,-2.70
2011,11,20,01,48,-2.70
2011,11,20,01,49,-2.70
2011,11,20,01,50,-2.80
2011,11,20,01,51,-2.80
2011,11,20,01,52,-2.80
2011,11,20,01,53,-2.80
2011,11,20,01,54,-2.80
2011,11,20,01,55,-2.80
2011,11,20,01,56,-2.80
2011,11,20,01,57,-2.80
2011,11,20,01,58,-2.80
2011,11,20,01,59,-2.80
2011,11,20,02,00,-2.80
2011,11,20,02,01,-2.80
2011,11,20,05,07,-3.60
2011,11,20,05,08,-3.60
2011,11,20,05,09,-3.60
2011,11,20,05,10,-3.60
2011,11,20,05,11,-3.60
2011,11,20,05,12,-3.60
2011,11,20,05,13,-3.60
2011,11,20,05,14,-3.60
2011,11,20,05,15,-3.60
2011,11,20,05,16,-3.70
2011,11,20,05,17,-3.70
2011,11,20,05,18,-3.70
2011,11,20,05,19,-3.70
2011,11,20,05,20,-3.70
2011,11,20,05,21,-3.70
2011,11,20,05,22,-3.70
2011,11,20,05,23,-3.70
2011,11,20,05,24,-3.70
2011,11,20,05,25,-3.70
2011,11,20,05,26,-3.70
2011,11,20,05,27,-3.70
2011,11,20,05,28,-3.70
2011,11,20,05,29,-3.70
2011,11,20,05,30,-3.70
2011,11,20,05,31,-3.70
2011,11,20,05,32,-3.60
2011,11,20,05,33,-3.60
2011,11,20,05,34,-3.60
2011,11,20,05,35,-3.60
2011,11,20,05,36,-3.60
2011,11,20,05,37,-3.50
2011,11,20,05,38,-3.50
2011,11,20,05,39,-3.50
2011,11,20,05,40,-3.50
2011,11,20,05,41,-3.50
2011,11,20,05,42,-3.50
2011,11,20,05,43,-3.40
2011,11,20,05,44,-3.40
2011,11,20,05,45,-3.40
2011,11,20,05,46,-3.40
2011,11,20,05,47,-3.40
2011,11,20,05,48,-3.40
2011,11,20,05,49,-3.30
2011,11,20,05,50,-3.30
2011,11,20,05,51,-3.30
2011,11,20,05,52,-3.30
2011,11,20,05,53,-3.30
2011,11,20,05,54,-3.40
2011,11,20,05,55,-3.40
2011,11,20,05,56,-3.40
2011,11,20,05,57,-3.40
2011,11,20,05,58,-3.40
2011,11,20,05,59,-3.40
2011,11,20,06,00,-3.40
2011,11,20,06,01,-3.40
2011,11,20,06,02,-3.40
2011,11,20,06,03,-3.40
2011,11,20,06,04,-3.40
2011,11,20,06,05,-3.40
2011,11,20,06,06,-3.40
2011,11,20,06,07,-3.50
2011,11,20,06,08,-3.50
2011,11,20,06,09,-3.50
2011,11,20,06,10,-3.50
2011,11,20,06,11,-3.50
2011,11,20,06,12,-3.50
2011,11,20,06,13,-3.50
2011,11,20,06,14,-3.50
2011,11,20,06,15,-3.50
2011,11,20,06,16,-3.50
2011,11,20,06,17,-3.40
2011,11,20,06,18,-3.40
2011,11,20,06,19,-3.40
2011,11,20,06,20,-3.40
2011,11,20,06,21,-3.30
2011,11,20,06,22,-3.30
2011,11,20,06,23,-3.30
2011,11,20,06,24,-3.30
2011,11,20,06,25,-3.30
2011,11,20,06,26,-3.30
2011,11,20,06,27,-3.20
2011,11,20,06,28,-3.20
2011,11,20,06,29,-3.20
2011,11,20,06,30,-3.20
2011,11,20,06,31,-3.10
2011,11,20,06,32,-3.10
2011,11,20,06,33,-3.00
2011,11,20,06,34,-3.00
2011,11,20,06,35,-3.00
2011,11,20,06,36,-2.90
2011,11,20,06,37,-2.90
2011,11,20,06,38,-2.90
2011,11,20,06,39,-2.80
2011,11,20,06,40,-2.80
2011,11,20,06,41,-2.80
2011,11,20,06,42,-2.80
2011,11,20,06,43,-2.80
2011,11,20,06,44,-2.80
2011,11,20,06,45,-2.80
2011,11,20,06,46,-2.80
2011,11,20,06,47,-2.70
2011,11,20,06,48,-2.70
2011,11,20,06,49,-2.70
2011,11,20,06,50,-2.60
2011,11,20,06,51,-2.60
2011,11,20,06,52,-2.60
2011,11,20,06,53,-2.60
2011,11,20,06,54,-2.50
2011,11,20,06,55,-2.50
2011,11,20,06,56,-2.40
2011,11,20,06,57,-2.40
2011,11,20,06,58,-2.40
2011,11,20,06,59,-2.40
2011,11,20,07,00,-2.40
2011,11,20,07,01,-2.30
2011,11,20,07,02,-2.30
2011,11,20,07,03,-2.30
2011,11,20,07,04,-2.30
2011,11,20,07,05,-2.30
2011,11,20,07,06,-2.30
2011,11,20,07,07,-2.30
2011,11,20,07,08,-2.30
2011,11,20,07,09,-2.30
2011,11,20,07,10,-2.30
2011,11,20,07,11,-2.30
2011,11,20,07,12,-2.30
2011,11,20,07,13,-2.30
2011,11,20,07,14,-2.20
2011,11,20,07,15,-2.20
2011,11,20,07,16,-2.20
2011,11,20,07,17,-2.20
2011,11,20,07,18,-2.20
2011,11,20,07,19,-2.20
2011,11,20,07,20,-2.10
2011,11,20,07,21,-2.10
2011,11,20,07,22,-2.10
2011,11,20,07,23,-2.10
2011,11,20,07,24,-2.10
2011,11,20,07,25,-2.00
2011,11,20,07,26,-2.00
2011,11,20,07,27,-2.00
2011,11,20,07,28,-2.00
2011,11,20,07,29,-1.90
2011,11,20,07,30,-1.90
2011,11,20,07,31,-1.90
2011,11,20,07,32,-1.80
2011,11,20,07,33,-1.80
2011,11,20,07,34,-1.80
2011,11,20,07,35,-1.80
2011,11,20,07,36,-1.80
2011,11,20,07,37,-1.80
2011,11,20,07,38,-1.80
2011,11,20,07,39,-1.70
2011,11,20,07,40,-1.70
2011,11,20,07,41,-1.70
2011,11,20,07,42,-1.70
2011,11,20,07,43,-1.70
2011,11,20,07,44,-1.70
2011,11,20,07,45,-1.70
2011,11,20,07,46,-1.60
2011,11,20,07,47,-1.60
2011,11,20,07,48,-1.60
2011,11,20,07,49,-1.60
2011,11,20,07,50,-1.60
2011,11,20,07,51,-1.60
2011,11,20,07,52,-1.60
2011,11,20,07,53,-1.60
2011,11,20,07,54,-1.60
2011,11,20,07,55,-1.60
2011,11,20,07,56,-1.60
2011,11,20,07,57,-1.60
2011,11,20,07,58,-1.40
2011,11,20,07,59,-1.30
2011,11,20,08,00,-1.30
2011,11,20,08,01,-1.30
2011,11,20,08,02,-1.30
2011,11,20,08,03,-1.30
2011,11,20,08,04,-1.30
2011,11,20,08,05,-1.30
2011,11,20,08,06,-1.30
2011,11,20,08,07,-1.20
2011,11,20,08,08,-1.20
2011,11,20,08,09,-1.20
2011,11,20,08,10,-1.20
2011,11,20,08,11,-1.20
2011,11,20,08,12,-1.20
2011,11,20,08,13,-1.10
2011,11,20,08,14,-1.10
2011,11,20,08,15,-1.10
2011,11,20,08,16,-1.10
2011,11,20,08,17,-1.10
2011,11,20,08,18,-1.10
2011,11,20,08,19,-1.10
2011,11,20,08,20,-1.10
2011,11,20,08,21,-1.00
2011,11,20,08,22,-0.90
2011,11,20,08,23,-0.90
2011,11,20,08,24,-0.90
2011,11,20,08,25,-0.90
2011,11,20,08,26,-0.90
2011,11,20,08,27,-0.90
2011,11,20,08,28,-0.90
2011,11,20,08,29,-0.90
2011,11,20,08,30,-0.90
2011,11,20,08,31,-0.90
2011,11,20,08,32,-0.90
2011,11,20,08,33,-0.80
2011,11,20,08,34,-0.80
2011,11,20,08,35,-0.80
2011,11,20,08,36,-0.80
2011,11,20,08,37,-0.80
2011,11,20,08,38,-0.80
2011,11,20,08,39,-0.70
2011,11,20,08,40,-0.70
2011,11,20,08,41,-0.70
2011,11,20,08,42,-0.70
2011,11,20,08,43,-0.60
2011,11,20,08,44,-0.60
2011,11,20,08,45,-0.60
2011,11,20,08,46,-0.60
2011,11,20,08,47,-0.60
2011,11,20,08,48,-0.60
2011,11,20,08,49,-0.50
2011,11,20,08,50,-0.40
2011,11,20,08,51,-0.40
2011,11,20,08,52,-0.40
2011,11,20,08,53,-0.40
2011,11,20,08,54,-0.40
2011,11,20,08,55,-0.30
2011,11,20,08,56,-0.30
2011,11,20,08,57,-0.30
2011,11,20,08,58,-0.30
2011,11,20,08,59,-0.20
2011,11,20,09,00,-0.20
2011,11,20,09,01,-0.20
2011,11,20,09,02,-0.10
2011,11,20,09,03,-0.10
2011,11,20,09,04,-0.10
2011,11,20,09,05,-0.10
2011,11,20,09,06,-0.10
2011,11,20,09,07,-0.10
2011,11,20,09,08,-0.10
2011,11,20,09,09,-0.10
2011,11,20,09,10,-0.10
2011,11,20,09,11,0.00
2011,11,20,09,12,0.10
2011,11,20,09,13,0.10
2011,11,20,09,14,0.10
2011,11,20,09,15,0.10
2011,11,20,09,16,0.10
2011,11,20,09,17,0.10
2011,11,20,09,18,0.10
2011,11,20,09,19,0.10
2011,11,20,09,20,0.10
2011,11,20,09,21,0.20
2011,11,20,09,22,0.20
2011,11,20,09,23,0.20
2011,11,20,09,24,0.20
2011,11,20,09,25,0.30
2011,11,20,09,26,0.30
2011,11,20,09,27,0.30
2011,11,20,09,28,0.40
2011,11,20,09,29,0.40
2011,11,20,09,30,0.40
2011,11,20,09,31,0.40
2011,11,20,09,32,0.40
2011,11,20,09,33,0.40
2011,11,20,09,34,0.40
2011,11,20,09,35,0.50
2011,11,20,09,36,0.50
2011,11,20,09,37,0.50
2011,11,20,09,38,0.60
2011,11,20,09,39,0.60
2011,11,20,09,40,0.70
2011,11,20,09,41,0.70
2011,11,20,09,42,0.70
2011,11,20,09,43,0.80
2011,11,20,09,44,0.80
2011,11,20,09,45,0.80
2011,11,20,09,46,0.90
2011,11,20,09,47,0.90
2011,11,20,09,48,1.00
2011,11,20,09,49,1.00
2011,11,20,09,50,1.00
2011,11,20,09,51,1.10
2011,11,20,09,52,1.10
2011,11,20,09,53,1.10
2011,11,20,09,54,1.20
2011,11,20,09,55,1.20
2011,11,20,09,56,1.20
2011,11,20,09,57,1.20
2011,11,20,09,58,1.20
2011,11,20,09,59,1.20
2011,11,20,10,00,1.20
2011,11,20,10,01,1.20
2011,11,20,10,02,1.20
2011,11,20,10,03,1.20
2011,11,20,10,04,1.20
2011,11,20,10,05,1.20
2011,11,20,10,06,1.20
2011,11,20,10,07,1.20
2011,11,20,10,08,1.20
2011,11,20,10,09,1.20
2011,11,20,10,10,1.20
2011,11,20,10,11,1.20
2011,11,20,10,12,1.20
2011,11,20,10,13,1.20
2011,11,20,10,14,1.20
2011,11,20,10,15,1.20
2011,11,20,10,16,1.20
2011,11,20,10,17,1.20
2011,11,20,10,18,1.20
2011,11,20,10,19,1.20
2011,11,20,10,20,1.20
2011,11,20,10,21,1.20
2011,11,20,10,22,1.20
2011,11,20,10,23,1.20
2011,11,20,10,24,1.20
2011,11,20,10,25,1.20
2011,11,20,10,26,1.20
2011,11,20,10,27,1.20
2011,11,20,10,28,1.20
2011,11,20,10,29,1.20
2011,11,20,10,30,1.20
2011,11,20,10,31,1.20
2011,11,20,10,32,1.20
2011,11,20,10,33,1.20
2011,11,20,10,34,1.20
2011,11,20,10,35,1.30
2011,11,20,10,36,1.30
2011,11,20,10,37,1.30
2011,11,20,10,38,1.30
2011,11,20,10,39,1.30
2011,11,20,10,40,1.30
2011,11,20,10,41,1.30
2011,11,20,10,42,1.30
2011,11,20,10,43,1.30
2011,11,20,10,44,1.40
2011,11,20,10,45,1.40
2011,11,20,10,46,1.40
2011,11,20,10,47,1.40
2011,11,20,10,48,1.50
2011,11,20,10,49,1.50
2011,11,20,10,50,1.50
2011,11,20,10,51,1.60
2011,11,20,10,52,1.60
2011,11,20,10,53,1.70
2011,11,20,10,54,1.70
2011,11,20,10,55,1.70
2011,11,20,10,56,1.80
2011,11,20,10,57,1.80
2011,11,20,10,58,1.80
2011,11,20,10,59,1.80
2011,11,20,11,00,1.80
2011,11,20,11,01,1.90
2011,11,20,11,02,1.90
2011,11,20,11,03,1.90
2011,11,20,11,04,1.90
2011,11,20,11,05,1.90
2011,11,20,11,06,1.90
2011,11,20,11,07,1.90
2011,11,20,11,08,2.00
2011,11,20,11,09,2.00
2011,11,20,11,10,2.00
2011,11,20,11,11,2.00
2011,11,20,11,12,2.10
2011,11,20,11,13,2.10
2011,11,20,11,14,2.10
2011,11,20,11,15,2.20
2011,11,20,11,16,2.20
2011,11,20,11,17,2.20
2011,11,20,11,18,2.20
2011,11,20,11,19,2.30
2011,11,20,11,20,2.40
2011,11,20,11,21,2.50
2011,11,20,11,22,2.50
2011,11,20,11,23,2.60
2011,11,20,11,24,2.70
2011,11,20,11,25,2.70
2011,11,20,11,26,2.70
2011,11,20,11,27,2.80
2011,11,20,11,28,2.80
2011,11,20,11,29,2.80
2011,11,20,11,30,2.80
2011,11,20,11,31,2.80
2011,11,20,11,32,2.90
2011,11,20,11,33,2.90
2011,11,20,11,34,2.90
2011,11,20,11,35,2.90
2011,11,20,11,36,2.90
2011,11,20,11,37,2.90
2011,11,20,11,38,2.90
2011,11,20,11,39,2.90
2011,11,20,11,40,2.90
2011,11,20,11,41,2.90
2011,11,20,11,42,2.90
2011,11,20,11,43,2.90
2011,11,20,11,44,2.90
2011,11,20,11,45,2.90
2011,11,20,11,46,2.90
2011,11,20,11,47,3.10
2011,11,20,11,48,3.10
2011,11,20,11,49,3.10
2011,11,20,11,50,3.10
2011,11,20,11,51,3.10
2011,11,20,11,52,3.10
2011,11,20,11,53,3.10
2011,11,20,11,54,3.10
2011,11,20,11,55,3.10
2011,11,20,11,56,3.20
2011,11,20,11,57,3.20
2011,11,20,11,58,3.20
2011,11,20,11,59,3.20
2011,11,20,12,00,3.20
2011,11,20,12,01,3.20
2011,11,20,12,02,3.20
2011,11,20,12,03,3.20
2011,11,20,12,04,3.10
2011,11,20,12,05,3.10
2011,11,20,12,06,3.10
2011,11,20,12,07,3.10
2011,11,20,12,08,3.10
2011,11,20,12,09,3.10
2011,11,20,12,10,3.10
2011,11,20,12,11,3.10
2011,11,20,12,12,3.10
2011,11,20,12,13,3.10
2011,11,20,12,14,3.00
2011,11,20,12,15,2.90
2011,11,20,12,16,2.90
2011,11,20,12,17,2.90
2011,11,20,12,18,2.90
2011,11,20,12,19,2.90
2011,11,20,12,20,2.90
2011,11,20,12,21,2.90
2011,11,20,12,22,2.90
2011,11,20,12,23,2.90
2011,11,20,12,24,2.90
2011,11,20,12,25,2.90
2011,11,20,12,26,2.90
2011,11,20,12,27,2.90
2011,11,20,12,28,2.90
2011,11,20,12,29,2.90
2011,11,20,12,30,2.90
2011,11,20,12,31,2.90
2011,11,20,12,32,2.90
2011,11,20,12,33,2.90
2011,11,20,12,34,2.90
2011,11,20,12,35,2.90
2011,11,20,12,36,2.90
2011,11,20,12,37,2.90
2011,11,20,12,38,3.00
2011,11,20,12,39,3.10
2011,11,20,12,40,3.10
2011,11,20,12,41,3.10
2011,11,20,12,42,3.10
2011,11,20,12,43,3.10
2011,11,20,12,44,3.10
2011,11,20,12,45,3.10
2011,11,20,12,46,3.10
2011,11,20,12,47,3.10
2011,11,20,12,48,3.10
2011,11,20,12,49,3.10
2011,11,20,12,50,3.10
2011,11,20,12,51,3.10
2011,11,20,12,52,3.10
2011,11,20,12,53,3.10
2011,11,20,12,54,3.10
2011,11,20,12,55,3.10
2011,11,20,12,56,3.10
2011,11,20,12,57,3.10
2011,11,20,12,58,3.10
2011,11,20,12,59,3.10
2011,11,20,13,00,3.10
2011,11,20,13,01,3.10
2011,11,20,13,02,3.10
2011,11,20,13,03,3.10
2011,11,20,13,04,3.10
2011,11,20,13,05,3.10
2011,11,20,13,06,3.00
2011,11,20,13,07,2.90
2011,11,20,13,08,2.90
2011,11,20,13,09,2.90
2011,11,20,13,10,2.90
2011,11,20,13,11,2.90
2011,11,20,13,12,2.90
2011,11,20,13,13,2.90
2011,11,20,13,14,2.90
2011,11,20,13,15,3.00
2011,11,20,13,16,3.10
2011,11,20,13,17,3.10
2011,11,20,13,18,3.10
2011,11,20,13,19,3.10
2011,11,20,13,20,3.10
2011,11,20,13,21,3.10
2011,11,20,13,22,3.10
2011,11,20,13,23,3.10
2011,11,20,13,24,3.20
2011,11,20,13,25,3.20
2011,11,20,13,26,3.20
2011,11,20,13,27,3.20
2011,11,20,13,28,3.20
2011,11,20,13,29,3.10
2011,11,20,13,30,3.10
2011,11,20,13,31,3.10
2011,11,20,13,32,3.10
2011,11,20,13,33,3.10
2011,11,20,13,34,3.20
2011,11,20,13,35,3.20
2011,11,20,13,36,3.20
2011,11,20,13,37,3.20
2011,11,20,13,38,3.20
2011,11,20,13,39,3.20
2011,11,20,13,40,3.20
2011,11,20,13,41,3.20
2011,11,20,13,42,3.20
2011,11,20,13,43,3.30
2011,11,20,13,44,3.30
2011,11,20,13,45,3.20
2011,11,20,13,46,3.20
2011,11,20,13,47,3.30
2011,11,20,13,48,3.30
2011,11,20,13,49,3.30
2011,11,20,13,50,3.30
2011,11,20,13,51,3.30
2011,11,20,13,52,3.30
2011,11,20,13,53,3.30
2011,11,20,13,54,3.30
2011,11,20,13,55,3.30
2011,11,20,13,56,3.30
2011,11,20,13,57,3.30
2011,11,20,13,58,3.30
2011,11,20,13,59,3.30
2011,11,20,14,00,3.30
2011,11,20,14,01,3.30
2011,11,20,14,02,3.30
2011,11,20,14,03,3.30
2011,11,20,14,04,3.30
2011,11,20,14,05,3.30
2011,11,20,14,06,3.30
2011,11,20,14,07,3.30
2011,11,20,14,08,3.30
2011,11,20,14,09,3.30
2011,11,20,14,10,3.30
2011,11,20,14,11,3.30
2011,11,20,14,12,3.30
2011,11,20,14,13,3.30
2011,11,20,14,14,3.30
2011,11,20,14,15,3.30
2011,11,20,14,16,3.30
2011,11,20,14,17,3.30
2011,11,20,14,18,3.30
2011,11,20,14,19,3.30
2011,11,20,14,20,3.30
2011,11,20,14,21,3.30
2011,11,20,14,22,3.30
2011,11,20,14,23,3.30
2011,11,20,14,24,3.30
2011,11,20,14,25,3.30
2011,11,20,14,26,3.20
2011,11,20,14,27,3.20
2011,11,20,14,28,3.20
2011,11,20,14,29,3.20
2011,11,20,14,30,3.20
2011,11,20,14,31,3.10
2011,11,20,14,32,3.10
2011,11,20,14,33,3.10
2011,11,20,14,34,3.10
2011,11,20,14,35,3.10
2011,11,20,14,36,3.10
2011,11,20,14,37,3.10
2011,11,20,14,38,3.10
2011,11,20,14,39,3.10
2011,11,20,14,40,3.10
2011,11,20,14,41,3.20
2011,11,20,14,42,3.20
2011,11,20,14,43,3.20
2011,11,20,14,44,3.20
2011,11,20,14,45,3.20
2011,11,20,14,46,3.20
2011,11,20,14,47,3.20
2011,11,20,14,48,3.20
2011,11,20,14,49,3.20
2011,11,20,14,50,3.20
2011,11,20,14,51,3.20
2011,11,20,14,52,3.20
2011,11,20,14,53,3.20
2011,11,20,14,54,3.20
2011,11,20,14,55,3.20
2011,11,20,14,56,3.20
2011,11,20,14,57,3.20
2011,11,20,14,58,3.20
2011,11,20,14,59,3.20
2011,11,20,15,00,3.20
2011,11,20,15,01,3.20
2011,11,20,15,02,3.20
2011,11,20,15,03,3.20
2011,11,20,15,04,3.20
2011,11,20,15,05,3.20
2011,11,20,15,06,3.20
2011,11,20,15,07,3.20
2011,11,20,15,08,3.20
2011,11,20,15,09,3.10
2011,11,20,15,10,3.10
2011,11,20,15,11,3.10
2011,11,20,15,12,3.10
2011,11,20,15,13,3.10
2011,11,20,15,14,3.10
2011,11,20,15,15,3.10
2011,11,20,15,16,3.10
2011,11,20,15,17,3.10
2011,11,20,15,18,3.10
2011,11,20,15,19,3.10
2011,11,20,15,20,3.10
2011,11,20,15,21,3.10
2011,11,20,15,22,3.10
2011,11,20,15,23,3.10
2011,11,20,15,24,3.00
2011,11,20,15,25,2.90
2011,11,20,15,26,2.90
2011,11,20,15,27,2.90
2011,11,20,15,28,2.90
2011,11,20,15,29,2.90
2011,11,20,15,30,2.90
2011,11,20,15,31,2.90
2011,11,20,15,32,2.90
2011,11,20,15,33,2.90
2011,11,20,15,34,2.90
2011,11,20,15,35,2.90
2011,11,20,15,36,2.90
2011,11,20,15,37,2.90
2011,11,20,15,38,2.90
2011,11,20,15,39,2.90
2011,11,20,15,40,2.90
2011,11,20,15,41,2.90
2011,11,20,15,42,2.90
2011,11,20,15,43,2.90
2011,11,20,15,44,2.90
2011,11,20,15,45,2.90
2011,11,20,15,46,2.90
2011,11,20,15,47,2.90
2011,11,20,15,48,2.90
2011,11,20,15,49,2.90
2011,11,20,15,50,2.90
2011,11,20,15,51,2.90
2011,11,20,15,52,2.90
2011,11,20,15,53,2.90
2011,11,20,15,54,2.90
2011,11,20,15,55,2.80
2011,11,20,15,56,2.80
2011,11,20,15,57,2.80
2011,11,20,15,58,2.80
2011,11,20,15,59,2.80
2011,11,20,16,00,2.80
2011,11,20,16,01,2.80
2011,11,20,16,02,2.70
2011,11,20,16,03,2.70
2011,11,20,16,04,2.70
2011,11,20,16,05,2.70
2011,11,20,16,06,2.70
2011,11,20,16,07,2.70
2011,11,20,16,08,2.70
2011,11,20,16,09,2.70
2011,11,20,16,10,2.70
2011,11,20,16,11,2.70
2011,11,20,16,12,2.70
2011,11,20,16,13,2.70
2011,11,20,16,14,2.70
2011,11,20,16,15,2.70
2011,11,20,16,16,2.70
2011,11,20,16,17,2.70
2011,11,20,16,18,2.60
2011,11,20,16,19,2.60
2011,11,20,16,20,2.60
2011,11,20,16,21,2.60
2011,11,20,16,22,2.60
2011,11,20,16,23,2.60
2011,11,20,16,24,2.60
2011,11,20,16,25,2.60
2011,11,20,16,26,2.50
2011,11,20,16,27,2.50
2011,11,20,16,28,2.50
2011,11,20,16,29,2.50
2011,11,20,16,30,2.50
2011,11,20,16,31,2.50
2011,11,20,16,32,2.50
2011,11,20,16,33,2.50
2011,11,20,16,34,2.40
2011,11,20,16,35,2.40
2011,11,20,16,36,2.40
2011,11,20,16,37,2.40
2011,11,20,16,38,2.30
2011,11,20,16,39,2.30
2011,11,20,16,40,2.30
2011,11,20,16,41,2.30
2011,11,20,16,42,2.30
2011,11,20,16,43,2.20
2011,11,20,16,44,2.20
2011,11,20,16,45,2.20
2011,11,20,16,46,2.20
2011,11,20,16,47,2.20
2011,11,20,16,48,2.20
2011,11,20,16,49,2.20
2011,11,20,16,50,2.20
2011,11,20,16,51,2.10
2011,11,20,16,52,2.10
2011,11,20,16,53,2.10
2011,11,20,16,54,2.10
2011,11,20,16,55,2.00
2011,11,20,16,56,2.00
2011,11,20,16,57,2.00
2011,11,20,16,58,1.90
2011,11,20,16,59,1.90
2011,11,20,17,00,1.90
2011,11,20,17,01,1.90
2011,11,20,17,02,1.90
2011,11,20,17,03,1.80
2011,11,20,17,04,1.80
2011,11,20,17,05,1.80
2011,11,20,17,06,1.80
2011,11,20,17,07,1.80
2011,11,20,17,08,1.80
2011,11,20,17,09,1.80
2011,11,20,17,10,1.80
2011,11,20,17,11,1.70
2011,11,20,17,12,1.70
2011,11,20,17,13,1.70
2011,11,20,17,14,1.70
2011,11,20,17,15,1.70
2011,11,20,17,16,1.70
2011,11,20,17,17,1.70
2011,11,20,17,18,1.60
2011,11,20,17,19,1.60
2011,11,20,17,20,1.60
2011,11,20,17,21,1.60
2011,11,20,17,22,1.60
2011,11,20,17,23,1.60
2011,11,20,17,24,1.60
2011,11,20,17,25,1.50
2011,11,20,17,26,1.50
2011,11,20,17,27,1.50
2011,11,20,17,28,1.50
2011,11,20,17,29,1.50
2011,11,20,17,30,1.50
2011,11,20,17,31,1.40
2011,11,20,17,32,1.40
2011,11,20,17,33,1.40
2011,11,20,17,34,1.40
2011,11,20,17,35,1.40
2011,11,20,17,36,1.40
2011,11,20,17,37,1.40
2011,11,20,17,38,1.30
2011,11,20,17,39,1.30
2011,11,20,17,40,1.30
2011,11,20,17,41,1.30
2011,11,20,17,42,1.30
2011,11,20,17,43,1.30
2011,11,20,17,44,1.30
2011,11,20,17,45,1.30
2011,11,20,17,46,1.30
2011,11,20,17,47,1.20
2011,11,20,17,48,1.20
2011,11,20,17,49,1.20
2011,11,20,17,50,1.20
2011,11,20,17,51,1.20
2011,11,20,17,52,1.20
2011,11,20,17,53,1.20
2011,11,20,17,54,1.10
2011,11,20,17,55,1.10
2011,11,20,17,56,1.10
2011,11,20,17,57,1.10
2011,11,20,17,58,1.10
2011,11,20,17,59,1.10
2011,11,20,18,00,1.10
2011,11,20,18,01,1.10
2011,11,20,18,02,1.00
2011,11,20,18,03,1.00
2011,11,20,18,04,1.00
2011,11,20,18,05,1.00
2011,11,20,18,06,1.00
2011,11,20,18,07,1.00
2011,11,20,18,08,1.00
2011,11,20,18,09,1.00
2011,11,20,18,10,1.00
2011,11,20,18,11,1.00
2011,11,20,18,12,1.00
2011,11,20,18,13,1.00
2011,11,20,18,14,1.00
2011,11,20,18,15,1.00
2011,11,20,18,16,1.00
2011,11,20,18,17,1.00
2011,11,20,18,18,1.00
2011,11,20,18,19,1.00
2011,11,20,18,20,1.00
2011,11,20,18,21,1.00
2011,11,20,18,22,1.00
2011,11,20,18,23,1.00
2011,11,20,18,24,1.00
2011,11,20,18,25,1.10
2011,11,20,18,26,1.10
2011,11,20,18,27,1.10
2011,11,20,18,28,1.10
2011,11,20,18,29,1.10
2011,11,20,18,30,1.10
2011,11,20,18,31,1.10
2011,11,20,18,32,1.10
2011,11,20,18,33,1.10
2011,11,20,18,34,1.10
2011,11,20,18,35,1.20
2011,11,20,18,36,1.20
2011,11,20,18,37,1.20
2011,11,20,18,38,1.20
2011,11,20,18,39,1.20
2011,11,20,18,40,1.30
2011,11,20,18,41,1.30
2011,11,20,18,42,1.30
2011,11,20,18,43,1.30
2011,11,20,18,44,1.30
2011,11,20,18,45,1.30
2011,11,20,18,46,1.30
2011,11,20,18,47,1.30
2011,11,20,18,48,1.30
2011,11,20,18,49,1.40
2011,11,20,18,50,1.40
2011,11,20,18,51,1.40
2011,11,20,18,52,1.40
2011,11,20,18,53,1.40
2011,11,20,18,54,1.40
2011,11,20,18,55,1.50
2011,11,20,18,56,1.50
2011,11,20,18,57,1.50
2011,11,20,18,58,1.50
2011,11,20,18,59,1.50
2011,11,20,19,00,1.50
2011,11,20,19,01,1.50
2011,11,20,19,02,1.50
2011,11,20,19,03,1.50
2011,11,20,19,04,1.60
2011,11,20,19,05,1.60
2011,11,20,19,06,1.60
2011,11,20,19,07,1.60
2011,11,20,19,08,1.60
2011,11,20,19,09,1.60
2011,11,20,19,10,1.60
2011,11,20,19,11,1.60
2011,11,20,19,12,1.60
2011,11,20,19,13,1.60
2011,11,20,19,14,1.60
2011,11,20,19,15,1.70
2011,11,20,19,16,1.70
2011,11,20,19,17,1.70
2011,11,20,19,18,1.70
2011,11,20,19,19,1.70
2011,11,20,19,20,1.70
2011,11,20,19,21,1.80
2011,11,20,19,22,1.80
2011,11,20,19,23,1.80
2011,11,20,19,24,1.80
2011,11,20,19,25,1.80
2011,11,20,19,26,1.80
2011,11,20,19,27,1.80
2011,11,20,19,28,1.80
2011,11,20,19,29,1.80
2011,11,20,19,30,1.80
2011,11,20,19,31,1.80
2011,11,20,19,32,1.80
2011,11,20,19,33,1.80
2011,11,20,19,34,1.80
2011,11,20,19,35,1.80
2011,11,20,19,36,1.80
2011,11,20,19,37,1.80
2011,11,20,19,38,1.80
2011,11,20,19,39,1.80
2011,11,20,19,40,1.80
2011,11,20,19,41,1.80
2011,11,20,19,42,1.80
2011,11,20,19,43,1.80
2011,11,20,19,44,1.80
2011,11,20,19,45,1.80
2011,11,20,19,46,1.80
2011,11,20,19,47,1.80
2011,11,20,19,48,1.80
2011,11,20,19,49,1.80
2011,11,20,19,50,1.80
2011,11,20,19,51,1.80
2011,11,20,19,52,1.90
2011,11,20,19,53,1.90
2011,11,20,19,54,1.90
2011,11,20,19,55,1.90
2011,11,20,19,56,1.90
2011,11,20,19,57,1.90
2011,11,20,19,58,1.90
2011,11,20,19,59,1.90
2011,11,20,20,00,1.90
2011,11,20,20,01,2.00
2011,11,20,20,02,2.00
2011,11,20,20,03,2.00
2011,11,20,20,04,2.00
2011,11,20,20,05,2.00
2011,11,20,20,06,2.00
2011,11,20,20,07,2.00
2011,11,20,20,08,2.00
2011,11,20,20,09,2.00
2011,11,20,20,10,2.00
2011,11,20,20,11,2.00
2011,11,20,20,12,2.10
2011,11,20,20,13,2.10
2011,11,20,20,14,2.10
2011,11,20,20,15,2.10
2011,11,20,20,16,2.10
2011,11,20,20,17,2.10
2011,11,20,20,18,2.10
2011,11,20,20,19,2.10
2011,11,20,20,20,2.10
2011,11,20,20,21,2.20
2011,11,20,20,22,2.20
2011,11,20,20,23,2.20
2011,11,20,20,24,2.20
2011,11,20,20,25,2.20
2011,11,20,20,26,2.20
2011,11,20,20,27,2.20
2011,11,20,20,28,2.20
2011,11,20,20,29,2.20
2011,11,20,20,30,2.20
2011,11,20,20,31,2.20
2011,11,20,20,32,2.20
2011,11,20,20,33,2.30
2011,11,20,20,34,2.30
2011,11,20,20,35,2.30
2011,11,20,20,36,2.30
2011,11,20,20,37,2.30
2011,11,20,20,38,2.30
2011,11,20,20,39,2.40
2011,11,20,20,40,2.40
2011,11,20,20,41,2.40
2011,11,20,20,42,2.40
2011,11,20,20,43,2.40
2011,11,20,20,44,2.40
2011,11,20,20,45,2.40
2011,11,20,20,46,2.40
2011,11,20,20,47,2.40
2011,11,20,20,48,2.40
2011,11,20,20,49,2.50
2011,11,20,20,50,2.50
2011,11,20,20,51,2.50
2011,11,20,20,52,2.50
2011,11,20,20,53,2.50
2011,11,20,20,54,2.50
2011,11,20,20,55,2.50